Regional Weather Roundup
Issued by NWS

Home | Current Version | Previous Version | Text Only | Print | Product List | Glossary On
Versions: 1 2 3 4 5 6 7 8 9 10 11 12 13 14 15 16 17 18 19 20 21 22 23 24 25 26 27 28 29 30 31 32 33 34 35 36 37 38 39 40 41 42 43 44 45 46 47 48 49 50
000
ASUS43 KDTX 191310
RWRMI
MICHIGAN HOURLY REGIONAL WEATHER ROUNDUP
NATIONAL WEATHER SERVICE DETROIT/PONTIAC MI
800 AM EST THU JAN 19 2017

NOTE: "FAIR" INDICATES FEW OR NO CLOUDS BELOW 12,000 FEET WITH NO
SIGNIFICANT WEATHER AND/OR OBSTRUCTION TO VISIBILITY.

MIZ047>049-052>055-059>063-066>070-074>076-081>083-191400-
SOUTHEAST LOWER MICHIGAN

CITY           SKY/WX    TMP DP  RH WIND       PRES   REMARKS
ADRIAN         CLOUDY    32  31  96 CALM      30.07F
ALMA           CLOUDY    35  33  91 SW8       30.03F FOG     WCI  29
ANN ARBOR      CLOUDY    33  31  92 SW6       30.05F WCI  28
BAD AXE        CLOUDY    32  32  99 SW8       30.04S FOG     WCI  25
CARO             N/A    N/A N/A N/A SW7       30.04R HAZE
DETROIT CITY   CLOUDY    34  30  86 W10       30.08R WCI  26
DETROIT        CLOUDY    34  31  88 SW8       30.08F WCI  27
FLINT          CLOUDY    33  30  88 SW8       30.06R WCI  26
GROSSE ILE     CLOUDY    33  31  94 W8        30.07S FOG     WCI  26
HILLSDALE      CLOUDY    32  30  93 CALM      30.03S FOG
HOWELL         CLOUDY    32  30  92 SW6       30.05S WCI  27

CITY           SKY/WX    TMP DP  RH WIND       PRES   REMARKS
JACKSON        CLOUDY    32  30  92 W6        30.04F WCI  26
LAMBERTVILLE   CLOUDY    36  32  87 W6        30.07F FOG     WCI  31
LANSING        CLOUDY    33  29  85 SW8       30.05F WCI  26
LAPEER         CLOUDY    33  32  96 W6        30.05S WCI  27
MASON          CLOUDY    33  31  94 CALM      30.04F
MONROE         CLOUDY    33  32  96 W7        30.07F FOG     WCI  27
MT. CLEMENS    CLOUDY    33  31  91 SW7       30.06R WCI  27
PONTIAC        CLOUDY    32  28  85 W9        30.04S WCI  24
PORT HOPE        N/A     33  32  96 VRB6      30.02S WCI  28
PORT HURON     CLOUDY    32  30  93 CALM      30.08R
TRI CITIES     CLOUDY    34  32  92 SW9       30.04S FOG     WCI  27
MIDLAND        CLOUDY    35  32  88 SW7       30.03R WCI  29
TROY           CLOUDY    33  30  87 W7        30.08S WCI  27
SAGINAW HB     CLOUDY    34  30  86 SW8       30.04S WCI  27
$$
MIZ043>046-050>051-056>058-064>065-071>073-077>080-191400-
SOUTHWEST LOWER MICHIGAN

CITY           SKY/WX    TMP DP  RH WIND       PRES   REMARKS
BATTLE CREEK   CLOUDY    33  31  92 SW5       30.05R WCI  29
BENTON HARBOR  CLOUDY    36  33  89 S8        30.04S FOG     WCI  30
BIG RAPIDS     CLOUDY    33  32  96 W5        30.00S FOG     WCI  28
COLDWATER      CLOUDY    33  33 100 SW5       30.06S WCI  28
FREMONT        CLOUDY    35  34  98 SW6       30.01R FOG     WCI  30
HOLLAND        CLOUDY    37  34  89 S8        30.03S WCI  31
GRAND RAPIDS   CLOUDY    36  32  85 SW7       30.03S FOG     WCI  30
IONIA          CLOUDY    34  32  93 SW8       30.03R FOG     WCI  27
KALAMAZOO      CLOUDY    35  31  85 S7        30.05F FOG     WCI  29
LUDINGTON      CLOUDY    34  34  99 S7        29.99S FOG     WCI  28
MARSHALL       CLOUDY    33  32  96 SW5       30.04S WCI  28
MOUNT PLEASANT CLOUDY    35  33  92 SW6       30.01F FOG     WCI  30
MUSKEGON       CLOUDY    38  35  89 SW8       30.02S WCI  32
SOUTH HAVEN    CLOUDY    36  34  95 S5        30.04S FOG     WCI  32
$$
MIZ016>042-191400-
NORTHERN LOWER MICHIGAN

CITY           SKY/WX    TMP DP  RH WIND       PRES   REMARKS
ALPENA         CLOUDY    34  31  88 CALM      30.01R
BEAVER ISLAND  CLOUDY    36  33  90 SW8       29.95R WCI  29
BELLAIRE       CLOUDY    35  32  91 S3        29.99S FOG
CADILLAC       FOG       32  31  98 SW10      29.97R VSB 1/2 WCI  24
CHARLEVOIX     CLOUDY    36  34  93 S6        30.00R FOG     WCI  31
FRANKFORT      CLOUDY    36  35  96 S6        29.98S FOG     WCI  31
GAYLORD        CLOUDY    34  30  85 SW9       29.96S FOG     WCI  27
GRAYLING       CLOUDY    34  32  94 SW3       29.99R FOG
HARBOR SPRINGS CLOUDY    35  33  92 SW7       29.98R FOG     WCI  29
HOUGHTON LAKE  CLOUDY    33  31  92 SW7       29.99R FOG     WCI  27
MANISTEE       CLOUDY    34  33  96 S6        29.99S FOG     WCI  29
OSCODA         CLOUDY    35  32  90 CALM      30.01S
PELLSTON       CLOUDY    36  31  82 SW7       29.98R HAZE    WCI  30
ROGERS CITY    CLOUDY    35  32  88 S5        30.01S WCI  31
TRAVERSE CITY  CLOUDY    36  32  85 CALM      29.98R FOG
$$
MIZ007>008-015-191400-
EASTERN UPPER MICHIGAN

CITY           SKY/WX    TMP DP  RH WIND       PRES   REMARKS
KINROSS        CLOUDY    34  33  96 S7        29.96R WCI  28
MACKINAC ISLAN CLOUDY    34  34 100 SW6       29.97R FOG     WCI  29
NEWBERRY       CLOUDY    32  31  97 S8        29.93R FOG     WCI  24
S. S. MARIE    CLOUDY    36  33  89 S6        29.95R WCI  31
MUNISING         N/A     27  25  92 S7        29.90R WCI  19
$$
MIZ004>006-011>014-085-191400-
CENTRAL UPPER MICHIGAN

CITY           SKY/WX    TMP DP  RH WIND       PRES   REMARKS
MANISTIQUE     CLOUDY    31  30  98 SW6       29.93S FOG     WCI  25
ESCANABA       CLOUDY    29  28  96 SW3       29.93S FOG
SAWYER-GWINN   FOG       21  21 100 S8        29.87  VSB 3/4 WCI  12
$$
MIZ001>003-009>011-084-191400-
WESTERN UPPER MICHIGAN

CITY           SKY/WX    TMP DP  RH WIND       PRES   REMARKS
IRON MOUNTAIN  CLOUDY    29  27  92 CALM      29.88S FOG
HOUGHTON       CLEAR     23  21  92 CALM      29.82S FOG
COPPER HARBOR    N/A     29  27  92 SW9       29.83S WCI  20
IRONWOOD       CLOUDY    34  33  96 S6        29.83F FOG     WCI  29
$$

ABBREVIATIONS USED IN REMARKS
   TC - TEMPERATURE IN CELSIUS
  WCI - WIND CHILL INDEX
   HX - HEAT INDEX
  VSB - VISIBILITY




USA.gov is the U.S. government's official web portal to all federal, state and local government web resources and services.